Lexington Weather

Lexington, Massachusetts, USA

68°F
9/23/2021 5:01am 
  • Lexington Conditions: Mostly cloudy
  • Temperature: 67.5°F / 19.7°CWarmer 0.9°F than last hour.
  • Dew Point: 66.6°FIncreased 1.3°Fsince last hour.
  • Relative Humidity: 97%Increased 1.0% since last hour.
  • Wind: Wind from SW SW Calm, 10-min avg: 1 mph, gust: 5 mph
  • Barometer: 30.03 in Steady
  • Visibility: 10 miles
  • Rain Today: 0.00 in
  •   

Regional Weather Roundup
for Boston / Norton, MA

        
000
ASUS41 KBOX 201504
RWRBOX

REGIONAL WEATHER ROUNDUP
NATIONAL WEATHER SERVICE BOSTON/NORTON MA
1100 AM EDT MON SEP 20 2021

NOTE:  "FAIR" INDICATES FEW OR NO CLOUDS BELOW 12,000 FEET WITH NO 
SIGNIFICANT WEATHER AND/OR OBSTRUCTIONS TO VISIBILITY.

MAZALL-201600-
EASTERN MASSACHUSETTS
  
CITY           SKY/WX    TMP DP  RH WIND       PRES   REMARKS
BOSTON         MOSUNNY   68  54  60 E7        30.40R                  
BEVERLY        SUNNY     69  57  65 CALM      30.39R                  
LAWRENCE       SUNNY     68  54  60 NE5       30.42R                  
BEDFORD        SUNNY     69  54  58 VRB6      30.39R                  
BLUE HILL      NOT AVBL                                               
NORWOOD        SUNNY     71  52  50 CALM      30.39R                  
MARSHFIELD     PTSUNNY   68  57  68 VRB5      30.39S                  
PLYMOUTH       MOSUNNY   69  57  65 NE8       30.40R                  
TAUNTON        SUNNY     70  54  56 VRB3      30.39R                  
NEW BEDFORD    SUNNY     71  54  54 E7        30.38R                  
$$

MAZALL-201600-
CAPE COD AND THE ISLANDS
  
CITY           SKY/WX    TMP DP  RH WIND       PRES   REMARKS
FALMOUTH       NOT AVBL                                               
HYANNIS        SUNNY     71  52  50 N9        30.37R                  
CHATHAM        SUNNY     68  52  56 NE8       30.40R                  
PROVINCETOWN   SUNNY     68  57  68 NE8       30.40S                  
NANTUCKET      SUNNY     71  54  54 NE8       30.38R                  
MARTHAS VNYRD  SUNNY     70  55  59 NE9       30.38R                  
$$
 
MAZALL-201600-
CENTRAL AND WESTERN MASSACHUSETTS
  
CITY           SKY/WX    TMP DP  RH WIND       PRES   REMARKS
WORCESTER      PTSUNNY   66  54  65 CALM      30.40R                  
FITCHBURG      SUNNY     66  52  60 VRB3      30.40R                  
ORANGE         MOSUNNY   66  56  70 S12       30.40R                  
SPRINGFIELD    PTSUNNY   65  55  70 CALM      30.38R                  
WESTFIELD      SUNNY     67  56  67 SE5       30.38S                  
NORTH ADAMS    SUNNY     68  53  58 VRB3      30.36S                  
PITTSFIELD     SUNNY     66  51  58 CALM      30.36S                  
$$
 
RIZALL-201600-
RHODE ISLAND
  
CITY           SKY/WX    TMP DP  RH WIND       PRES   REMARKS
PROVIDENCE     MOSUNNY   71  52  50 E6        30.39R                  
NEWPORT        SUNNY     68  53  58 VRB3      30.38S                  
SMITHFIELD     SUNNY     69  53  56 VRB6      30.40R                  
WESTERLY       SUNNY     68  55  63 SE6       30.38R                  
$$
 
CTZALL-201600-
CONNECTICUT
  
CITY           SKY/WX    TMP DP  RH WIND       PRES   REMARKS
BRADLEY INTL   MOSUNNY   65  56  72 CALM      30.38S                  
HARTFORD       MOSUNNY   68  56  65 CALM      30.38R                  
BRIDGEPORT     SUNNY     69  62  78 E6        30.36R                  
DANBURY        SUNNY     72  59  63 VRB5      30.37S                  
GROTON         SUNNY     70  54  56 E7        30.37R                  
NEW HAVEN      PTSUNNY   74  64  71 E8        30.36R                  
CHESTER        PTSUNNY   73  59  60 VRB5      30.38R                  
MERIDEN        SUNNY     70  57  63 CALM      30.37S                  
WILLIMANTIC    CLOUDY    69  56  62 VRB3      30.38S                  
OXFORD         PTSUNNY   68  60  75 S3        30.38R                  
$$

MEZ002-015-021-024-NHZ003-005-008-011-012-014-VTZ005-008-201600-
NORTHERN NEW ENGLAND
  
CITY           SKY/WX    TMP DP  RH WIND       PRES   REMARKS
PORTLAND ME    MOSUNNY   63  53  70 E6        30.41R                  
BANGOR ME      MOSUNNY   62  46  55 CALM      30.40S                  
CONCORD NH     SUNNY     67  50  54 CALM      30.40S                  
MANCHESTER NH  MOSUNNY   68  51  54 VRB6      30.38S                  
NASHUA NH      SUNNY     68  52  56 SE3       30.40S                  
PORTSMOUTH NH  MOSUNNY   68  53  58 SE5       30.41R                  
JAFFREY NH     MOSUNNY   66  56  70 VRB6      30.40R                  
KEENE NH       SUNNY     61  55  81 CALM      30.39F                  
BURLINGTON VT  MOSUNNY   68  51  54 S7        30.34F                  
MT. WASHINGTON NOT AVBL                                               
$$

NYZ052-076-201600-
EASTERN NEW YORK
  
CITY           SKY/WX    TMP DP  RH WIND       PRES   REMARKS
ALBANY         MOSUNNY   61  54  77 CALM      30.36S                  
NEW YORK CITY  MOSUNNY   73  60  63 NE6       30.34S                  
$$
 
ANZALL-201600-
MARINE OBSERVATIONS
  
STATION/POSITION TIME  TEMP    WIND        PRES    VSBY  WAVE
                       AIR SEA DIR/SP/G                  HT/PER
                 (UTC) (F)     (DEG/KT/KT) (MB)    (MI)  (FT/S)
BOSTON BUOY      1440      66   60/  4/  6 1029.5R
BUZZARDS BAY     1400           50/ 10/ 11 1029.7R
NANTUCKET SOUND  1440   68 72   50/  8/ 12 1028.8R
MASS BAY-STELLWA 1404   64      50/  6/  6 1028.8R  1 7/8  3/ 8
ISLE OF SHOALS   1400   61      20/  8/  8 1028.7R
S OF BLOCK IS    1426      71                N/A           2/ 8
$$

......................KEY.........................
  SKY/WX - SKY CONDITION/PRESENT WEATHER
  TMP    - TEMPERATURE IN FAHRENHEIT
  DWPT   - DEWPOINT IN FAHRENHEIT
  RH     - RELATIVE HUMIDITY IN PERCENT
  WIND   - DIRECTION AND SPEED IN MPH
  PRES   - MEAN SEA LEVEL PRESSURE IN INCHES OF HG
  WCI    - WIND CHILL INDEX
  VSB    - VISIBILITY IN MILES
  HX     - HEAT INDEX
  TC     - TEMPERATURE IN CELSIUS
  VRB    - VARIABLE WIND DIRECTION
  N/A    - NOT AVAILABLE
  
      

Other recent Regional Weather Roundups

Thu Sep 23, 4:04am

Thu Sep 23, 3:04am

Thu Sep 23, 2:04am

Thu Sep 23, 1:04am

Thu Sep 23, 12:04am

Wed Sep 22, 11:04pm

Wed Sep 22, 10:04pm

Wed Sep 22, 9:04pm

Wed Sep 22, 8:04pm

Wed Sep 22, 7:04pm

Wed Sep 22, 6:04pm

Wed Sep 22, 5:04pm

Wed Sep 22, 4:04pm

Wed Sep 22, 3:04pm

Wed Sep 22, 2:04pm

Wed Sep 22, 1:04pm

Wed Sep 22, 12:05pm

Wed Sep 22, 11:04am

Wed Sep 22, 10:04am

Wed Sep 22, 9:04am

Wed Sep 22, 8:04am

Wed Sep 22, 7:04am

Wed Sep 22, 6:04am

Wed Sep 22, 5:04am

Wed Sep 22, 4:04am

Wed Sep 22, 3:04am

Wed Sep 22, 2:04am

Wed Sep 22, 1:04am

Wed Sep 22, 12:04am

Tue Sep 21, 11:04pm

Tue Sep 21, 10:04pm

Tue Sep 21, 9:04pm

Tue Sep 21, 8:04pm

Tue Sep 21, 7:04pm

Tue Sep 21, 6:04pm

Tue Sep 21, 5:04pm

Tue Sep 21, 4:04pm

Tue Sep 21, 3:04pm

Tue Sep 21, 2:04pm

Tue Sep 21, 1:04pm

Tue Sep 21, 12:04pm

Tue Sep 21, 11:04am

Tue Sep 21, 10:04am

Tue Sep 21, 9:04am

Tue Sep 21, 8:04am

Tue Sep 21, 7:04am

Tue Sep 21, 6:04am

Tue Sep 21, 5:04am

Tue Sep 21, 4:04am

Tue Sep 21, 3:04am

Tue Sep 21, 2:04am

Tue Sep 21, 1:04am

Tue Sep 21, 12:04am

Mon Sep 20, 11:04pm

Mon Sep 20, 10:04pm

Mon Sep 20, 9:04pm

Mon Sep 20, 8:04pm

Mon Sep 20, 7:04pm

Mon Sep 20, 6:04pm

Mon Sep 20, 5:04pm

Mon Sep 20, 4:04pm

Mon Sep 20, 3:04pm

Mon Sep 20, 2:04pm

Mon Sep 20, 1:04pm

Mon Sep 20, 12:04pm

Mon Sep 20, 10:04am

Mon Sep 20, 9:04am

Mon Sep 20, 7:04am

Mon Sep 20, 6:04am

Mon Sep 20, 5:04am

Mon Sep 20, 4:04am

Mon Sep 20, 3:04am

Mon Sep 20, 2:04am

Mon Sep 20, 1:04am

Mon Sep 20, 12:04am

Sun Sep 19, 11:04pm

Sun Sep 19, 10:04pm

Sun Sep 19, 9:04pm

Sun Sep 19, 8:04pm

Sun Sep 19, 7:04pm

Sun Sep 19, 6:04pm

Sun Sep 19, 5:04pm

Sun Sep 19, 4:04pm

Sun Sep 19, 3:04pm

Sun Sep 19, 2:05pm

Sun Sep 19, 1:04pm

Sun Sep 19, 12:04pm

Sun Sep 19, 11:04am

Sun Sep 19, 10:05am

Sun Sep 19, 9:04am

Sun Sep 19, 8:04am

Sun Sep 19, 7:04am

Sun Sep 19, 6:04am

Sun Sep 19, 5:04am

Sun Sep 19, 4:04am

Sun Sep 19, 3:04am

Sun Sep 19, 2:04am

Sun Sep 19, 1:04am

Sun Sep 19, 12:04am

Sat Sep 18, 11:05pm

Sat Sep 18, 10:04pm

Sat Sep 18, 9:04pm

Sat Sep 18, 8:04pm

Sat Sep 18, 7:04pm

Sat Sep 18, 6:04pm

Sat Sep 18, 5:04pm

Sat Sep 18, 4:04pm

Sat Sep 18, 3:04pm

Sat Sep 18, 2:04pm

Sat Sep 18, 1:04pm

Sat Sep 18, 12:04pm

Sat Sep 18, 11:04am

Sat Sep 18, 10:04am

Sat Sep 18, 9:04am

Sat Sep 18, 8:04am

Sat Sep 18, 7:04am

Sat Sep 18, 6:04am

Sat Sep 18, 5:04am

Sat Sep 18, 4:04am

Sat Sep 18, 3:04am

Sat Sep 18, 2:04am

Sat Sep 18, 1:04am

Sat Sep 18, 12:04am

Fri Sep 17, 11:04pm

Fri Sep 17, 10:04pm

Fri Sep 17, 9:04pm

Fri Sep 17, 8:04pm

Fri Sep 17, 7:04pm

Fri Sep 17, 6:04pm

Fri Sep 17, 5:04pm

Fri Sep 17, 4:04pm

Fri Sep 17, 3:04pm

Fri Sep 17, 2:04pm

Fri Sep 17, 1:04pm

Fri Sep 17, 12:05pm

Fri Sep 17, 11:04am

Fri Sep 17, 10:04am

Fri Sep 17, 9:04am

Fri Sep 17, 8:04am

Fri Sep 17, 7:04am

Fri Sep 17, 6:04am

Fri Sep 17, 5:04am

Fri Sep 17, 4:04am

Fri Sep 17, 3:04am

Fri Sep 17, 2:04am

Fri Sep 17, 1:04am

Fri Sep 17, 12:04am

Thu Sep 16, 11:04pm

Thu Sep 16, 10:04pm

Thu Sep 16, 9:04pm

Thu Sep 16, 8:04pm

Thu Sep 16, 7:04pm

Thu Sep 16, 6:04pm

Thu Sep 16, 5:04pm

Thu Sep 16, 4:04pm

Thu Sep 16, 3:04pm

Thu Sep 16, 2:04pm

Thu Sep 16, 1:05pm

Thu Sep 16, 12:04pm

Thu Sep 16, 11:05am

Thu Sep 16, 10:05am

Thu Sep 16, 9:04am

Thu Sep 16, 8:04am

Thu Sep 16, 7:04am

Thu Sep 16, 6:04am

Thu Sep 16, 5:04am

Meta data:

ID: 3eed1239-737a-45a0-9307-3660219e9079
Link: https://api.weather.gov/products/3eed1239-737a-45a0-9307-3660219e9079